Home   Weather   El Monte   Past weeks

Flag for USA Past Weather in El Monte, California, USA — Yesterday and Last 2 Weeks

Now
75 °F

Clear.


Feels Like: 78 °F
Forecast: 65 / 91 °F
Wind: 5 mph from South

Location: Fullerton Municipal Airport

Current Time: Sep 28, 2016 at 1:43:08 AM

Latest Report: Sep 28, 2016 at 12:53 AM


Visibility: 10 mi

Pressure: 29.88 "Hg

Humidity: 52%

Dew Point: 56 °F

Location of El MonteLocation

Past Weather in El Monte — Graph

°F

El Monte Temperature Yesterday

Maximum temperature yesterday: 95 °F (at 11:53 AM)
Minimum temperature yesterday: 71 °F (at 1:53 AM)
Average temperature yesterday: 83 °F

High & Low Weather Summary for the Past Weeks

 TemperatureHumidityPressure
High106 °F (Sep 26, 1:53 PM)94% (Sep 19, 5:00 AM)30.06 "Hg (Sep 19, 5:00 AM)
Low58 °F (Sep 15, 6:53 AM)6% (Sep 25, 2:53 PM)29.80 "Hg (Sep 27, 2:53 PM)
Average74 °F53%29.92 "Hg
* Reported Sep 12 11:53 PM — Sep 27 11:53 PM, El Monte, Weather by CustomWeather, © 2016

Note: Actual official high and low records may vary slightly from our data, if they occured in-between our weather recording intervals... More about our weather records

Advertising

El Monte Weather History for the Previous 24 Hours

Scroll right to see more
 ConditionsComfort  
Time TempWeatherWind HumidityBarometerVisibility
11:53 PM
Tue, Sep 27
75 °FClear.No wind52%29.86 "Hg10 mi
10:53 PM77 °FClear.No wind47%29.87 "Hg10 mi
9:53 PM80 °FClear.No wind36%29.87 "Hg10 mi
8:53 PM81 °FClear.No wind35%29.86 "Hg10 mi
7:53 PM82 °FClear.3 mph33%29.84 "Hg10 mi
6:53 PM84 °FClear.5 mph33%29.83 "Hg10 mi
5:53 PM87 °FSunny.6 mph27%29.82 "Hg10 mi
4:53 PM90 °FSunny.9 mph24%29.80 "Hg10 mi
3:53 PM91 °FSunny.7 mph23%29.80 "Hg10 mi
2:53 PM92 °FSunny.12 mph21%29.80 "Hg10 mi
1:53 PM93 °FSunny.9 mph20%29.80 "Hg10 mi
12:53 PM94 °FSunny.10 mph17%29.82 "Hg10 mi
11:53 AM95 °FBroken clouds.9 mph15%29.83 "Hg10 mi
10:53 AM93 °FSunny.No wind14%29.84 "Hg10 mi
9:53 AM92 °FScattered clouds.No wind18%29.85 "Hg10 mi
8:53 AM89 °FScattered clouds.5 mph22%29.84 "Hg10 mi
7:53 AM81 °FPartly sunny.No wind28%29.83 "Hg10 mi
6:53 AM72 °FPartly sunny.9 mph35%29.83 "Hg10 mi
5:53 AM72 °FClear.No wind34%29.83 "Hg10 mi
4:53 AM72 °FClear.3 mph31%29.83 "Hg10 mi
3:53 AM73 °FClear.5 mph28%29.83 "Hg10 mi
2:53 AM74 °FClear.3 mph29%29.83 "Hg10 mi
1:53 AM71 °FClear.3 mph41%29.83 "Hg10 mi
Weather by CustomWeather, © 2016

See weather overviewHow to use our weather pages